This demonstration page uses our WeatherBlox Daily Observations layout. Learn more.

Left ArrowRight Arrow

44.89941, -97.11507

Hourly Observations for June 14, 2021

Temp ( °F °C ) Dew Point ( °F °C ) Humidity (%) Winds ( mph kmh ) Pressure ( in mb ) Visibility ( mi km ) Precip ( " mm )
12:53 am 00:53 Partly Cloudy 68 20 50 10 53 53 ENE 6 9 30.06 1018 10 16 0.00 0.00
1:53 am 01:53 Clear 68 20 48 8.9 49 49 ENE 6 9 30.04 1017 10 16 0.00 0.00
2:53 am 02:53 Mostly Cloudy 69 20.6 48 8.9 47 47 ENE 5 7 30.06 1018 10 16 0.00 0.00
3:53 am 03:53 Partly Cloudy 65 18.3 50 10 59 59 ENE 3 6 30.05 1018 10 16 0.00 0.00
4:53 am 04:53 Mostly Cloudy 62 16.7 52 11.1 70 70 N 3 6 30.07 1018 10 16 0.00 0.00
5:53 am 05:53 Sunny 59 15 51 10.6 75 75 NNE 3 6 30.09 1019 10 16 0.00 0.00
6:53 am 06:53 Sunny 63 17.2 53 11.7 70 70 Calm 30.09 1019 10 16 0.00 0.00
7:53 am 07:53 Sunny 71 21.7 51 10.6 49 49 E 7 11 30.09 1019 10 16 0.00 0.00
8:53 am 08:53 Sunny 73 22.8 52 11.1 48 48 SSE 6 9 30.12 1020 10 16 0.00 0.00
9:53 am 09:53 Sunny 77 25 47 8.3 35 35 VRB 6 9 30.13 1020 10 16 0.00 0.00
10:53 am 10:53 Sunny 79 26.1 45 7.2 30 30 E 8 13 30.13 1020 10 16 0.00 0.00
11:53 am 11:53 Sunny 81 27.2 46 7.8 29 29 NE 6 9 30.13 1020 N/A 0.00 0.00
12:53 pm 12:53 Sunny 82 27.8 44 6.7 26 26 VRB 5 7 30.11 1020 10 16 0.00 0.00
1:53 pm 13:53 Sunny 84 28.9 45 7.2 25 25 Calm 30.10 1019 10 16 0.00 0.00
2:53 pm 14:53 Sunny 84 28.9 44 6.7 25 25 Calm 30.09 1019 10 16 0.00 0.00
3:53 pm 15:53 Sunny 85 29.4 46 7.8 26 26 VRB 5 7 30.09 1019 10 16 0.00 0.00
4:53 pm 16:53 Sunny 86 30 45 7.2 24 24 NNE 8 13 30.08 1019 10 16 0.00 0.00
5:53 pm 17:53 Sunny 85 29.4 45 7.2 25 25 NE 7 11 30.08 1019 10 16 0.00 0.00
6:53 pm 18:53 Sunny 83 28.3 46 7.8 27 27 NNE 9 15 30.08 1019 10 16 0.00 0.00
7:53 pm 19:53 Sunny 80 26.7 46 7.8 30 30 NNE 9 15 30.08 1019 10 16 0.00 0.00
8:53 pm 20:53 Sunny 74 23.3 47 8.3 38 38 NE 8 13 30.09 1019 10 16 0.00 0.00
9:53 pm 21:53 Clear 70 21.1 45 7.2 41 41 ENE 7 11 30.10 1019 10 16 0.00 0.00
10:53 pm 22:53 Clear 70 21.1 45 7.2 41 41 Calm 30.11 1020 10 16 0.00 0.00
11:53 pm 23:53 Clear 66 18.9 46 7.8 49 49 Calm 30.12 1020 10 16 0.00 0.00

Powered by AerisWeather